HXMT (HUIYAN) (42758 NORAD) Tracking and Keplerian Element Data

This shows tracking and keplerian element data for the satellite.

Feedback or suggestion? Click here.




ElementValue
Catalog42758
NameHXMT (HUIYAN)
Epoch Orbit36318
Epoch Day13.17602841
Epoch Year2024
RAAN58.8927
Inclination43.0155
Eccentricity0.0003419
Argument of Perigee276.8527
Mean Anonmoly83.1932
Mean Motion15.15070752
Decay Rate9.395E-05
L11 42758U 17034A 24013.17602841 .00009395 00000+0 50462-3 0 9995
L22 42758 43.0155 58.8927 0003419 276.8527 83.1932 15.15070752363189



Live tracking and technical data element details for HXMT (HUIYAN) (NORAD 42758). HXMT (HUIYAN) can be tracked NOW for your location showing map with azimuth and elevation plus other details from your city location.







IsCatalogInMostPopularTable: catalog: 42758, numindb: 630
Update: records affected: 1



GetName: 42758 HXMT (HUIYAN)

Hit Count: updated at: Fri, 19 Apr 2024 12:24:06 GMT